sat.trackr.live / text

‹ back to catalog

STARLINK-4573

NORAD 53623 · 2022-104AM

PAYLOAD ACTIVE UNKNOWN

§ Identity

Operator
Country
US
Launch date
2022-08-28
Launch site
AFETR
Launch vehicle
Mass (kg)
RCS (m²)

Purposes: comms

External: N2YO · Heavens-Above · Gunter

§ Orbital elements

Epoch: 2026-05-24T15:30:56.672064Z

Period
95.44 min
Inclination
53.2154°
Eccentricity
0.0001308
Mean motion
15.08843374 rev/d
Perigee alt
538.8 km
Apogee alt
540.6 km
Semi-major
6,917.9 km
B*
-2.6113e-5
RAAN
253.0127°
Arg perigee
90.2302°
Mean anomaly
269.8840°
Rev number
20,721

§ Raw data

STARLINK-45731 53623U 22104AM  26144.64648926 -.00000704  00000+0 -26113-4 0  99992 53623  53.2154 253.0127 0001308  90.2302 269.8840 15.08843374207211

JSON: /api/v1/satellites/53623 · /tle

For live sub-satellite position, see the globe view (requires WebGL).

§ Visibility from observer

Set your observer location to see the next 7 days of passes ≥ 10°. The values pass through the URL so the page stays shareable.

No JS? Fill the form by hand. The geolocation button needs JavaScript.